Flag for U.S.A. Weather past 2 weeks in St. Augustine, Florida, U.S.A.

Now
86 °F

Sunny.


Feels Like: 90 °F
Forecast: 72 / 86 °F
Wind: 8 mph from East

Location: St. Augustine Airport

Current Time: Sep 22, 2014 at 2:25:24 PM

Latest Report: Sep 22, 2014 at 1:58 PM


Visibility: 10 mi

Pressure: 30.01 "Hg

Humidity: 57%

Dew point: 69 °F

Location of St. AugustineLocation

Historic Weather in St. Augustine — Graph

°F

St. Augustine temperature yesterday

Maximum temperature yesterday: 83 °F (at 2:58 PM)
Minimum temperature yesterday: 67 °F (at 6:58 AM)
Average temperature yesterday: 75 °F

Past Weeks' High & Low Weather Summary

 TemperatureHumidityPressure
High89 °F (Sep 13, 12:58 PM)100% (Sep 20, 4:03 AM)30.17 "Hg (Sep 20, 4:03 AM)
Low67 °F (Sep 21, 6:58 AM)53% (Sep 21, 3:58 PM)29.86 "Hg (Sep 17, 5:58 PM)
Average79 °F82%30.02 "Hg
* Reported Sep 7 12:03 PM — Sep 22 12:58 PM, St. Augustine, Weather by CustomWeather, © 2014

Note: Actual official high and low records may vary slightly from our data, if they occured in-between our weather recording intervals... More about our weather records

Advertising

St. Augustine weather history for previous 24 hours

 ConditionsComfort  
Time TempWeatherWind HumidityBarometerVisibility
12:58 PM
Sep 22
87 °FSunny.7 mph57%30.03 "Hg10 mi
11:58 AM85 °FSunny.8 mph65%30.04 "Hg10 mi
10:58 AM85 °FSunny.3 mph63%30.06 "Hg10 mi
9:58 AM81 °FSunny.9 mph77%30.06 "Hg10 mi
8:58 AM75 °FSunny.3 mph88%30.05 "Hg10 mi
7:58 AM69 °FClear.No wind90%30.03 "Hg10 mi
6:58 AM69 °FClear.No wind90%30.02 "Hg10 mi
6:04 AM70 °FPassing clouds.No wind88%30.00 "Hg10 mi
5:58 AM69 °FClear.No wind90%30.00 "Hg10 mi
4:58 AM70 °FClear.No wind87%29.98 "Hg10 mi
3:58 AM70 °FClear.3 mph87%29.99 "Hg10 mi
2:58 AM70 °FClear.3 mph87%30.00 "Hg10 mi
1:58 AM70 °FClear.6 mph87%30.01 "Hg10 mi
12:58 AM71 °FClear.7 mph84%30.03 "Hg10 mi
11:58 PM
Sep 21
70 °FClear.3 mph87%30.04 "Hg10 mi
10:58 PM71 °FClear.No wind84%30.03 "Hg10 mi
9:58 PM72 °FClear.No wind84%30.02 "Hg10 mi
8:58 PM74 °FClear.No wind79%30.02 "Hg10 mi
7:58 PM77 °FSunny.No wind71%30.00 "Hg10 mi
6:58 PM80 °FSunny.5 mph62%29.99 "Hg10 mi
5:58 PM82 °FSunny.6 mph55%29.98 "Hg10 mi
4:58 PM83 °FSunny.N/A55%29.97 "Hg10 mi
3:58 PM83 °FSunny.7 mph53%29.98 "Hg10 mi
2:58 PM83 °FSunny.7 mph59%29.99 "Hg10 mi
Weather by CustomWeather, © 2014

See weather overviewHow to use our weather pages